Location: Aurora Center
(43.5271°N, 98.5894°W)
Time: 09:59:36
(UTC-05:00)

Explorer 11/Cluster Stage 4 - All Passes

Search period start: 14 July 2024 00:00
Search period end: 24 July 2024 00:00
Orbit: 465 x 1215 km, 28.8° (Epoch: 13 July)

Date Brightness Start Highest point End Pass type
(mag) Time Alt. Az. Time Alt. Az. Time Alt. Az.
20 Jul - 10:15:13 10° S 10:16:09 11° S 10:17:02 10° SSE daylight
21 Jul - 09:56:21 10° SSW 09:58:10 12° S 09:59:53 10° SSE daylight
22 Jul - 09:37:40 10° SSW 09:40:09 13° S 09:42:26 10° SSE daylight
22 Jul - 11:26:22 10° SSW 11:27:07 10° SSW 11:27:50 10° S daylight
23 Jul - 07:33:18 10° S 07:34:52 11° SSE 07:36:23 10° SSE daylight
23 Jul - 09:19:04 10° SSW 09:22:06 15° S 09:24:50 10° SE daylight
23 Jul - 11:07:46 10° SSW 11:09:05 11° SSW 11:10:21 10° S daylight
